Location: Kitt Peak
(31.9514°N, 111.6156°W)
Time: 00:25:23
(UTC-07:00)

N. Korean satellite - Visible Passes

Search period start: 29 January 2022 00:00
Search period end: 08 February 2022 00:00
Orbit: 447 x 490 km, 97.3° (Epoch: 28 January)

Date Brightness Start Highest point End Pass type
(mag) Time Alt. Az. Time Alt. Az. Time Alt. Az.
29 Jan 8.6 05:13:20 10° NNE 05:18:50 20° SSE 05:20:07 10° S visible
30 Jan 9.7 04:45:09 10° NE 04:49:08 12° SE 04:49:36 10° SE visible
30 Jan 7.8 06:17:36 10° NNW 06:23:09 10° WSW 06:23:14 10° SW visible
31 Jan 6.5 05:47:45 10° N 05:53:20 23° SSW 05:54:49 10° SSW visible
01 Feb 7.5 05:18:33 10° NNE 05:22:03 48° E 05:25:30 10° S visible
02 Feb 9.3 04:50:07 10° NE 04:52:41 18° E 04:55:12 10° SE visible
02 Feb 7.9 06:23:05 10° NNW 06:25:39 19° WNW 06:28:11 10° WSW visible
03 Feb 6.7 05:53:02 10° N 05:56:30 47° WNW 05:59:55 10° SSW visible
04 Feb 7.1 05:23:41 10° NNE 05:27:14 58° E 05:30:43 10° S visible
05 Feb 9.0 04:55:02 10° NE 04:57:50 21° E 05:00:35 10° SSE visible
05 Feb 8.1 06:28:30 10° NNW 06:30:44 16° WNW 06:32:57 10° WSW visible
06 Feb 6.9 05:58:13 10° N 06:01:34 39° WNW 06:04:53 10° SW visible
07 Feb 6.7 05:28:43 10° NNE 05:32:17 71° ESE 05:35:47 10° S visible
